Location: Observatory Park - Geauga Park District
(41.5832°N, 81.0716°W)
Time: 12:28:08
(UTC-04:00)

N. Korean satellite - Pass Details

Date: 30 September 2021
Orbit: 450 x 495 km, 97.3° (Epoch: 17 October)

Event Time Altitude Azimuth Distance (km) Brightness Sun altitude
Rises 06:35:29 0° 13° (NNE) 2,543 10.5 -9.2°
Reaches altitude 10° 06:37:33 10° 16° (NNE) 1,666 9.5 -8.8°
Maximum altitude 06:41:08 73° 101° (ESE) 512 6.8 -8.2°
Drops below altitude 10° 06:44:44 10° 187° (S) 1,674 9.2 -7.5°
Sets 06:46:48 0° 189° (S) 2,555 10.1 -7.1°
